Notices

What's New in latest Release from April 7th, 2021:

- Updated Glossary, including Speed of Maximum Gust, and Total Hourly Precipitation

- Updated national and regional climate services offices contacts and prices information

- Addition of station inventory lists for 1981-2010, 1971-2000, and 1961-1990 Normals.

If you haven't already, please take our survey and provide feedback about our website: https://eccc.sondage-survey.ca/f/LanguageSelection.aspx?s=442ca660-fcf1-47c0-95a9-59707d6fd709

Hourly Data Report for April 02, 2003

TORONTO CITY
ONTARIO

43°40'00.000" N
79°24'00.000" W
112.50 m
6158355
71508
XTO

Download Data

Hourly Data (April 2003)
Hourly Data Report for April 2, 2003
TIME
LST
Temp Definition
°C
Dew Point Definition
°C
Rel Hum Definition
%
Precip. Amount Definition
mm

Wind Dir Definition
10's deg

Wind Spd Definition
km/h
Visibility Definition
km
Stn Press Definition
kPa
Hmdx Definition


Wind Chill Definition


Weather Definition


00:00 1.5 0.4 92   LegendMM LegendMM LegendMM 99.92     LegendNANA
01:00 1.5 0.2 91   LegendMM LegendMM LegendMM 99.94     LegendNANA
02:00 1.5 0.1 90   LegendMM LegendMM LegendMM 99.97     LegendNANA
03:00 1.5 -0.2 88   LegendMM LegendMM LegendMM 100.03     LegendNANA
04:00 1.5 -0.2 88   LegendMM LegendMM LegendMM 100.07     LegendNANA
05:00 1.7 0.1 89   LegendMM LegendMM LegendMM 100.14     LegendNANA
06:00 1.9 0.3 89   LegendMM LegendMM LegendMM 100.14     LegendNANA
07:00 2.1 0.0 86   LegendMM LegendMM LegendMM 100.17     LegendNANA
08:00 2.3 0.4 87   LegendMM LegendMM LegendMM 100.13     LegendNANA
09:00 2.5 0.7 88   LegendMM LegendMM LegendMM 100.13     LegendNANA
10:00 2.4 0.3 86   LegendMM LegendMM LegendMM 100.17     LegendNANA
11:00 2.9 0.1 82   LegendMM LegendMM LegendMM 100.23     LegendNANA
12:00 3.4 0.1 79   LegendMM LegendMM LegendMM 100.25     LegendNANA
13:00 3.6 0.1 78   LegendMM LegendMM LegendMM 100.23     LegendNANA
14:00 3.8 -0.3 75   LegendMM LegendMM LegendMM 100.12     LegendNANA
15:00 4.4 0.2 74   LegendMM LegendMM LegendMM 100.24     LegendNANA
16:00 4.1 0.4 77   LegendMM LegendMM LegendMM 100.23     LegendNANA
17:00 3.8 0.7 80   LegendMM LegendMM LegendMM 100.28     LegendNANA
18:00 2.9 0.1 82   LegendMM LegendMM LegendMM 100.35     LegendNANA
19:00 2.5 0.4 86   LegendMM LegendMM LegendMM 100.38     LegendNANA
20:00 2.3 0.2 86   LegendMM LegendMM LegendMM 100.39     LegendNANA
21:00 2.3 -0.2 84   LegendMM LegendMM LegendMM 100.44     LegendNANA
22:00 2.1 -0.4 83   LegendMM LegendMM LegendMM 100.43     LegendNANA
23:00 1.9 -0.4 85   LegendMM LegendMM LegendMM 100.41     LegendNANA

Notes on Data Quality.

Legend

  • E = Estimated
  • M = Missing
  • NA = Not Available*
  • [empty] = Indicates an unobserved value
Date modified: